Weather History for Grove, OK

Change the Weather History Date:

Monday, March 18, 2013

  Actual Average (KSLG) Record (KSLG)
Temperature  
Mean Temperature 48 °F -  
Max Temperature 59 °F 55 °F 78 °F (2009)
Min Temperature 35 °F 37 °F 35 °F (2001)
Degree Days  
Heating Degree Days 17    
Moisture  
Dew Point 39 °F    
Average Humidity 78    
Maximum Humidity 100    
Minimum Humidity 33    
Precipitation  
Precipitation 0.00 in - - ()
Sea Level Pressure  
Sea Level Pressure 29.90 in    
Wind  
Wind Speed 5 mph (NW)    
Max Wind Speed 15 mph    
Max Gust Speed 24 mph    
Visibility 9 miles    
Events Rain , Thunderstorm    
Averages and records for this station are not official NWS values.
T = Trace of Precipitation, MM = Missing Value Source: NWS Daily Summary

Daily Weather History Graph

Daily Weather History Graph

Search for Another Location

Airport:

Trip Planner

Search our weather history database for the weather conditions in past years. The results will help you decide how hot, cold, wet, or windy it might be!

Date:

Astronomy

Mar. 18, 2013 Rise Set
Actual Time 7:25 AM CDT 7:29 PM CDT
Civil Twilight 6:59 AM CDT 7:55 PM CDT
Nautical Twilight 6:29 AM CDT 8:25 PM CDT
Astronomical Twilight 5:58 AM CDT 8:55 PM CDT
Moon 11:34 AM CDT (3/18) 1:20 AM CDT (3/18)
Length of Visible Light 12h 55m
Length of Day
12h 04m
Waxing Crescent, 41% of the Moon is Illuminated
Mar 18
Waxing Crescent
Mar 19
First Quarter
Mar 27
Full
Apr 2
Last Quarter
Apr 10
New

Hourly Weather History & Observations

Time (CDT) Temp. Windchill Dew Point Humidity Pressure Visibility Wind Dir Wind Speed Gust Speed Precip Events Conditions
12:15 AM 44.6 °F - 44.6 °F 100% 29.73 in 1.2 mi Calm Calm - N/A   Overcast
12:35 AM 44.6 °F - 44.6 °F 100% 29.73 in 2.0 mi Calm Calm - N/A   Overcast
12:55 AM 44.6 °F 42.2 °F 44.6 °F 100% 29.71 in 4.0 mi SW 4.6 mph - N/A   Overcast
1:15 AM 44.6 °F - 44.6 °F 100% 29.71 in 5.0 mi Calm Calm - N/A   Overcast
1:35 AM 44.6 °F 42.2 °F 44.6 °F 100% 29.73 in 5.0 mi West 4.6 mph - N/A   Overcast
1:55 AM 44.6 °F 40.7 °F 44.6 °F 100% 29.75 in 10.0 mi West 6.9 mph - N/A   Overcast
2:15 AM 44.6 °F 41.4 °F 44.6 °F 100% 29.75 in 10.0 mi West 5.8 mph - N/A   Overcast
2:35 AM 44.6 °F 41.4 °F 44.6 °F 100% 29.75 in 7.0 mi WSW 5.8 mph - N/A   Overcast
2:55 AM 44.6 °F - 44.6 °F 100% 29.74 in 7.0 mi Calm Calm - N/A   Light Drizzle
3:15 AM 44.6 °F - 44.6 °F 100% 29.75 in 10.0 mi Calm Calm - N/A   Overcast
3:35 AM 44.6 °F 40.7 °F 44.6 °F 100% 29.78 in 10.0 mi WSW 6.9 mph - N/A   Light Drizzle
3:55 AM 44.6 °F 43.1 °F 44.6 °F 100% 29.76 in 10.0 mi WNW 3.5 mph - N/A Rain Light Rain
4:15 AM 44.6 °F 41.4 °F 44.6 °F 100% 29.73 in 10.0 mi NW 5.8 mph - N/A   Mostly Cloudy
4:35 AM 44.6 °F 40.7 °F 44.6 °F 100% 29.78 in 10.0 mi WSW 6.9 mph - N/A Rain Light Rain
4:55 AM 44.6 °F - 44.6 °F 100% 29.78 in 10.0 mi Calm Calm - N/A   Overcast
5:15 AM 44.6 °F 43.1 °F 44.6 °F 100% 29.78 in 10.0 mi WNW 3.5 mph - N/A   Overcast
5:35 AM 44.6 °F 42.2 °F 44.6 °F 100% 29.78 in 10.0 mi WNW 4.6 mph - N/A   Overcast
5:55 AM 42.8 °F 39.3 °F 42.8 °F 100% 29.78 in 10.0 mi NW 5.8 mph - N/A   Overcast
6:15 AM 42.8 °F 38.6 °F 42.8 °F 100% 29.79 in 10.0 mi NNW 6.9 mph - N/A   Overcast
6:35 AM 42.8 °F 37.5 °F 42.8 °F 100% 29.82 in 10.0 mi WNW 9.2 mph - N/A   Overcast
6:55 AM 42.8 °F 40.1 °F 42.8 °F 100% 29.82 in 10.0 mi WNW 4.6 mph - N/A   Overcast
7:15 AM 42.8 °F 38.6 °F 42.8 °F 100% 29.83 in 10.0 mi NW 6.9 mph - N/A Thunderstorm Overcast
7:35 AM 42.8 °F 38.6 °F 42.8 °F 100% 29.85 in 10.0 mi WNW 6.9 mph - N/A   Overcast
7:55 AM 42.8 °F 39.3 °F 42.8 °F 100% 29.88 in 7.0 mi WNW 5.8 mph - N/A   Overcast
8:15 AM 42.8 °F 40.1 °F 42.8 °F 100% 29.88 in 10.0 mi NW 4.6 mph - N/A   Overcast
8:35 AM 42.8 °F 37.5 °F 42.8 °F 100% 29.87 in 7.0 mi NW 9.2 mph 16.1 mph N/A Rain Light Rain
8:55 AM 41.0 °F 35.2 °F 41.0 °F 100% 29.86 in 10.0 mi NNW 9.2 mph - N/A   Overcast
9:15 AM 42.8 °F 38.0 °F 42.8 °F 100% 29.89 in 10.0 mi WNW 8.1 mph - N/A   Overcast
9:35 AM 42.8 °F 37.5 °F 42.8 °F 100% 29.90 in 10.0 mi NW 9.2 mph 17.3 mph N/A   Overcast
9:55 AM 42.8 °F 36.2 °F 42.8 °F 100% 29.91 in 10.0 mi NNW 12.7 mph 24.2 mph N/A   Overcast
10:15 AM 42.8 °F 35.8 °F 41.0 °F 93% 29.92 in 10.0 mi NW 13.8 mph 17.3 mph N/A   Overcast
10:35 AM 42.8 °F 37.0 °F 42.8 °F 100% 29.93 in 10.0 mi NNW 10.4 mph - N/A   Overcast
10:55 AM 42.8 °F 36.6 °F 42.8 °F 100% 29.93 in 10.0 mi North 11.5 mph 17.3 mph N/A   Overcast
11:15 AM 42.8 °F 35.4 °F 42.8 °F 100% 29.95 in 10.0 mi NNW 15.0 mph 20.7 mph N/A   Overcast
11:35 AM 42.8 °F 35.8 °F 39.2 °F 87% 29.96 in 10.0 mi NNW 13.8 mph - N/A   Overcast
11:55 AM 42.8 °F 36.6 °F 37.4 °F 81% 29.96 in 10.0 mi NNW 11.5 mph 19.6 mph N/A   Overcast
12:15 PM 44.6 °F 39.7 °F 39.2 °F 81% 29.96 in 10.0 mi NNW 9.2 mph - N/A   Overcast
12:35 PM 44.6 °F 39.2 °F 39.2 °F 81% 29.96 in 10.0 mi NW 10.4 mph - N/A   Overcast
12:55 PM 46.4 °F 41.9 °F 41.0 °F 81% 29.98 in 10.0 mi NNW 9.2 mph - N/A   Mostly Cloudy
1:15 PM 50.0 °F - 39.2 °F 66% 29.97 in 10.0 mi North 9.2 mph - N/A   Scattered Clouds
1:35 PM 50.0 °F - 39.2 °F 66% 29.96 in 10.0 mi NW 10.4 mph - N/A   Clear
1:55 PM 50.0 °F - 39.2 °F 66% 29.96 in 10.0 mi North 3.5 mph - N/A   Clear
2:15 PM 51.8 °F - 37.4 °F 58% 29.96 in 10.0 mi North 10.4 mph - N/A   Clear
2:35 PM 53.6 °F - 37.4 °F 54% 29.95 in 10.0 mi North 5.8 mph - N/A   Clear
2:55 PM 53.6 °F - 37.4 °F 54% 29.96 in 10.0 mi North 9.2 mph - N/A   Clear
3:15 PM 55.4 °F - 33.8 °F 44% 29.95 in 10.0 mi NNW 12.7 mph 17.3 mph N/A   Clear
3:35 PM 55.4 °F - 33.8 °F 44% 29.94 in 10.0 mi NNW 13.8 mph 18.4 mph N/A   Clear
3:55 PM 57.2 °F - 33.8 °F 41% 29.94 in 10.0 mi NNW 15.0 mph - N/A   Clear
4:15 PM 57.2 °F - 32.0 °F 38% 29.94 in 10.0 mi NNW 9.2 mph 16.1 mph N/A   Clear
4:35 PM 59.0 °F - 32.0 °F 36% 29.95 in 10.0 mi North 10.4 mph 16.1 mph N/A   Clear
4:55 PM 57.2 °F - 32.0 °F 38% 29.95 in 10.0 mi NW 8.1 mph 16.1 mph N/A   Clear
5:15 PM 59.0 °F - 32.0 °F 36% 29.96 in 10.0 mi NW 9.2 mph - N/A   Clear
5:35 PM 57.2 °F - 30.2 °F 36% 29.96 in 10.0 mi NW 9.2 mph - N/A   Clear
5:55 PM 57.2 °F - 28.4 °F 33% 29.96 in 10.0 mi NNW 11.5 mph 16.1 mph N/A   Clear
6:15 PM 55.4 °F - 28.4 °F 36% 29.97 in 10.0 mi NW 9.2 mph - N/A   Clear
6:35 PM 55.4 °F - 30.2 °F 38% 29.98 in 10.0 mi NW 6.9 mph - N/A   Clear
6:55 PM 53.6 °F - 30.2 °F 41% 29.99 in 10.0 mi NW 4.6 mph - N/A   Clear
7:15 PM 53.6 °F - 32.0 °F 44% 29.98 in 10.0 mi Calm Calm - N/A   Scattered Clouds
7:35 PM 53.6 °F - 32.0 °F 44% 29.99 in 10.0 mi Calm Calm - N/A   Clear
7:55 PM 51.8 °F - 32.0 °F 47% 29.99 in 10.0 mi Calm Calm - N/A   Clear
8:15 PM 50.0 °F - 32.0 °F 50% 30.00 in 10.0 mi Calm Calm - N/A   Clear
8:35 PM 48.2 °F - 32.0 °F 54% 30.01 in 10.0 mi Calm Calm - N/A   Clear
8:55 PM 48.2 °F - 32.0 °F 54% 30.01 in 10.0 mi NNW 3.5 mph - N/A   Clear
9:15 PM 46.4 °F - 32.0 °F 57% 30.01 in 10.0 mi Calm Calm - N/A   Clear
9:35 PM 44.6 °F - 32.0 °F 61% 30.03 in 10.0 mi Calm Calm - N/A   Clear
9:55 PM 42.8 °F - 33.8 °F 70% 30.04 in 10.0 mi Calm Calm - N/A   Clear
10:15 PM 42.8 °F - 35.6 °F 76% 30.04 in 10.0 mi Calm Calm - N/A   Clear
10:55 PM 39.2 °F - 33.8 °F 81% 30.05 in 10.0 mi Calm Calm - N/A   Clear
11:15 PM 39.2 °F - 33.8 °F 81% 30.06 in 10.0 mi Calm Calm - N/A   Clear
11:35 PM 37.4 °F - 33.8 °F 87% 30.07 in 10.0 mi Calm Calm - N/A   Clear
11:55 PM 35.6 °F - 33.8 °F 93% 30.07 in 10.0 mi Calm Calm - N/A   Clear